Location: Boissi�res
(45.2500°N, 2.3667°E)
Time: 01:22:18
(UTC+00:00)

Cosmos 2360 Rocket - Pass Details

Date: 03 March 2021
Orbit: 833 x 846 km, 71.0° (Epoch: 20 April)

Event Time Altitude Azimuth Distance (km) Brightness Sun altitude
Rises 20:20:42 0° 239° (WSW) 3,382 5.8 -28.5°
Reaches altitude 10° 20:23:28 10° 251° (WSW) 2,454 5.2 -29.0°
Maximum altitude 20:28:15 28° 309° (NW) 1,540 4.1 -29.7°
Drops below altitude 10° 20:33:05 10° 8° (N) 2,473 4.8 -30.5°
Sets 20:35:55 0° 20° (NNE) 3,413 5.4 -31.0°
